This is the latest recevied weather packets stored in our database for station/object OE3EMC-13. If no packets are shown the sender has not sent any weather packets the latest 10 day(s).
| Time | Temp. | Humidity | Pressure | Rain* | Wind** | Luminosity | Snow |
|---|---|---|---|---|---|---|---|
| 1777719791 | 23.33° C | 32% | 1100 hPa | 0 mm | - | - | - |
| 1777719191 | 23.33° C | 28% | 1100 hPa | 0 mm | - | - | - |
| 1777718590 | 23.33° C | 28% | 1100 hPa | 0 mm | - | - | - |
| 1777717990 | 22.22° C | 31% | 1100 hPa | 0 mm | - | - | - |
| 1777717390 | 22.22° C | 31% | 1100 hPa | 0 mm | - | - | - |
| 1777716794 | 22.22° C | 29% | 1100 hPa | 0 mm | - | - | - |
| 1777716194 | 22.22° C | 29% | 1100 hPa | 0 mm | - | - | - |
| 1777715595 | 21.67° C | 31% | 1100 hPa | 0 mm | - | - | - |
| 1777714994 | 21.67° C | 31% | 1100 hPa | 0 mm | - | - | - |
| 1777714395 | 20.56° C | 34% | 1100 hPa | 0 mm | - | - | - |
| 1777713794 | 20.56° C | 34% | 1100 hPa | 0 mm | - | - | - |
| 1777713193 | 20° C | 33% | 1100 hPa | 0 mm | - | - | - |
| 1777712594 | 20° C | 33% | 1100 hPa | 0 mm | - | - | - |
| 1777711995 | 18.89° C | 39% | 1100 hPa | 0 mm | - | - | - |
| 1777711395 | 18.89° C | 39% | 1100 hPa | 0 mm | - | - | - |
| 1777710793 | 16.67° C | 44% | 1100 hPa | 0 mm | - | - | - |
| 1777710193 | 16.67° C | 44% | 1100 hPa | 0 mm | - | - | - |
| 1777709594 | 15° C | 48% | 1100 hPa | 0 mm | - | - | - |
| 1777708993 | 15° C | 48% | 1100 hPa | 0 mm | - | - | - |
| 1777708392 | 13.89° C | 50% | 1100 hPa | 0 mm | - | - | - |
| 1777707792 | 13.89° C | 50% | 1100 hPa | 0 mm | - | - | - |
| 1777707192 | 13.33° C | 54% | 1100 hPa | 0 mm | - | - | - |
| 1777706592 | 13.33° C | 54% | 1100 hPa | 0 mm | - | - | - |
| 1777705993 | 12.22° C | 60% | 1100 hPa | 0 mm | - | - | - |
| 1777705393 | 12.22° C | 60% | 1100 hPa | 0 mm | - | - | - |
* Rain latest hour (hover to see other rain measurements)
** Current wind speed in m/s (hover to see current wind gust speed)